Tracking 30298 objects as of 27-Apr-2025
HD Live streaming from Space Station
objects crossing your sky now

GHGSAT-C7

Track GHGSAT-C7 now!
10-day predictions
GHGSAT-C7 is classified as:


NORAD ID: 56209
Int'l Code: 2023-054AH
Perigee: 445.0 km
Apogee: 460.8 km
Inclination: 97.3 °
Period: 93.5 minutes
Semi major axis: 6823 km
RCS: Unknown
Launch date: April 15, 2023
Source: Canada (CA)
Launch site: AIR FORCE WESTERN TEST RANGE (AFWTR)

Uplink (MHz):
Downlink (MHz): 400.360
Beacon (MHz):
Mode: 9k6 GMSK
Call sign:
Status: Unknown

Your satellite tracking list
Your tracking list is empty




NASA's NSSDC Master Catalog

Two Line Element Set (TLE):
1 56209U 23054AH  25117.64743617  .00014842  00000-0  37141-3 0  9998
2 56209  97.3333  18.1967 0011564 102.7343 257.5196 15.40130571114245
Source of the keplerian elements: AFSPC